Regional Weather Roundup
Issued by NWS

Home | Current Version | Previous Version | Text Only | Print | Product List | Glossary Off
Versions: 1 2 3 4 5 6 7 8 9 10 11 12 13 14 15 16 17 18 19 20 21 22 23 24 25 26

000
ASUS45 KCYS 262210
RWRWY

WYOMING REGIONAL WEATHER ROUNDUP
NATIONAL WEATHER SERVICE CHEYENNE WY
400 PM MDT WED JUL 26 2017

NOTE:  "FAIR" INDICATES FEW OR NO CLOUDS BELOW 12,000 FEET
WITH NO SIGNIFICANT WEATHER AND/OR OBSTRUCTIONS TO VISIBILITY.

WYZ001-262300-
YELLOWSTONE NATIONAL PARK

CITY           SKY/WX    TMP DP  RH WIND       PRES   REMARKS
LK YELLOWSTONE   N/A     68  50  52 W9        30.40S
W YELLOWSTONE  NOT AVBL

$$
WYZ002>013-054>058-071-098>099-262300-
NORTHERN WYOMING

CITY           SKY/WX    TMP DP  RH WIND       PRES   REMARKS
JACKSON        PTSUNNY   73  48  40 CALM      30.30F
CODY           FAIR      84  47  27 CALM      30.17F
GREYBULL       FAIR      87  48  25 S8        30.08F
WORLAND        FAIR      88  49  25 CALM      30.09F
SHERIDAN       FAIR      87  52  29 SE15G22   30.11F
BUFFALO        FAIR      84  51  31 S12G20    30.20F
GILLETTE       FAIR      83  52  34 S13G21    30.17F
HULETT         FAIR      82  54  36 SE7       30.20F
NEWCASTLE      FAIR      84  46  26 S12G22    30.20F

$$
WYZ014>020-022>026-101>103-262300-
CENTRAL WYOMING

CITY           SKY/WX    TMP DP  RH WIND       PRES   REMARKS
BIG PINEY      CLOUDY    70  49  47 CALM      30.35F
PINEDALE       MOCLDY    70  50  49 NW7       30.36F
DUBOIS         CLOUDY    70  45  40 E8        30.32S
LANDER         FAIR      81  51  35 VRB3      30.20F
RIVERTON       FAIR      80  48  32 CALM      30.20F
CASPER         FAIR      78  55  44 S6        30.21F
DOUGLAS        FAIR      74  55  51 SE16      30.26F

$$
WYZ021-027>030-104>119-262300-
SOUTHERN WYOMING

CITY           SKY/WX    TMP DP  RH WIND       PRES   REMARKS
EVANSTON       FAIR      77  52  41 W9        30.33F
KEMMERER         N/A     73  52  46 W5        30.35F
FORT BRIDGER   CLOUDY    72  57  60 NE5       30.37S
ROCK SPRINGS   RAIN      65  56  72 VRB6      30.34R
RAWLINS        FAIR      74  52  46 S3        30.30F
SARATOGA       MOCLDY    73  52  46 N8        30.32S
LARAMIE        CLOUDY    65  57  75 SE17      30.35R
CHEYENNE       CLOUDY    72  55  55 NE10      30.31S
TORRINGTON     PTSUNNY   79  53  40 NE7       30.19F
PINE BLUFFS    FAIR      79  54  41 NE18      30.24S

$$




USA.gov is the U.S. government's official web portal to all federal, state and local government web resources and services.